Temperature
22 21 20 20 19 19 19 19 19 18 18 18 18 18 18 17 17 17 17 17 17 17 17 17 17 17 17 17 17 17 17 17 17 18 18 18 18 18 18 17 17 17 17
22 21 20 20 19 19 19 19 18 18 18 18 18 18 18 17 17 17 17 17 17 17 17 17 17 17 17 17 17 17 17 17 17 18 18 18 18 18 18 18 17 17 17
22 21 20 20 19 19 19 19 18 18 18 18 18 17 17 17 17 17 17 17 17 17 17 17 17 17 17 17 17 17 17 17 17 17 18 18 19 18 18 18 17 17 17
22 21 21 20 20 19 19 19 19 18 18 18 17 17 17 17 17 17 17 17 17 17 17 17 17 17 17 17 17 17 17 17 17 17 17 17 18 18 18 18 18 17 17
23 22 21 20 20 19 19 19 18 18 18 18 17 17 17 17 17 17 16 16 16 16 17 17 17 16 16 16 17 17 17 17 17 17 17 17 17 17 17 18 18 17 17
22 21 21 20 19 19 19 19 18 18 18 18 17 17 17 17 17 16 17 17 16 16 17 16 17 16 16 16 16 16 16 16 17 17 17 17 17 17 17 17 17 17 17
23 22 20 20 19 19 19 19 18 18 18 18 17 17 17 17 17 17 17 16 16 17 17 17 17 16 16 16 16 16 16 16 16 16 16 17 17 17 17 17 17 17 17
23 22 20 20 19 19 19 18 18 18 18 17 17 17 17 17 17 17 16 16 16 16 16 16 16 16 16 16 16 16 16 16 16 16 16 16 16 16 16 17 17 17 17
22 22 21 20 19 19 19 18 18 18 17 17 17 17 17 17 16 16 16 16 16 16 16 16 16 16 16 16 16 16 16 16 16 16 16 16 16 16 16 16 16 17 17
22 21 21 20 19 19 18 18 18 18 18 17 17 17 17 17 16 16 16 16 16 16 16 16 16 16 16 16 16 16 16 16 16 16 16 16 16 16 15 16 16 16 16
22 21 21 20 19 19 18 18 17 17 17 17 17 17 17 16 16 16 16 16 16 16 16 16 16 16 16 16 16 16 15 15 15 15 15 16 16 15 15 15 15 15 15
22 21 20 20 19 19 18 18 17 17 17 17 17 17 17 16 16 16 16 16 16 16 15 15 15 15 15 15 15 15 15 15 15 15 15 15 15 15 15 15 15 15 15
21 21 20 19 19 18 18 18 17 17 17 17 17 16 16 16 16 16 16 16 16 16 15 15 15 15 15 15 15 15 15 15 15 15 15 15 15 15 15 15 15 15 15
21 20 19 19 18 18 18 17 17 17 17 16 16 16 16 16 16 16 15 15 15 15 15 15 15 15 15 15 15 15 15 15 15 14 14 14 14 14 14 14 14 14 14
20 19 19 18 18 17 17 17 17 17 16 16 16 16 15 15 15 15 15 15 15 15 15 15 14 14 14 14 15 15 14 14 14 14 14 14 14 14 14 14 14 14 14
20 19 18 18 18 17 17 17 16 16 16 16 16 16 15 15 15 15 15 15 15 14 14 14 14 14 14 14 15 14 14 14 14 14 14 14 14 14 14 14 14 14 13
19 19 18 18 17 17 17 16 16 16 16 15 15 15 15 15 14 14 14 14 14 14 14 14 14 14 14 14 14 14 14 14 14 14 14 14 14 14 14 14 14 14 14
19 18 18 17 17 17 17 16 16 16 15 15 15 15 15 15 14 14 14 14 14 14 14 14 14 14 14 14 14 14 14 14 13 13 13 13 13 13 13 13 13 13 13
18 18 17 17 17 16 16 16 16 15 15 15 15 15 15 15 14 14 14 14 14 14 14 14 14 14 14 14 14 14 13 13 13 13 13 13 13 13 13 13 13 13 13
17 17 17 16 16 16 16 16 16 15 15 15 15 15 15 14 14 14 14 14 14 14 14 14 14 14 14 14 14 14 13 13 13 13 13 13 13 13 13 13 12 12 13
17 16 16 16 16 16 15 15 15 15 15 15 15 15 15 14 14 14 14 14 14 14 14 14 14 13 13 14 13 13 13 13 13 13 13 13 13 13 13 13 12 12 12
16 16 16 16 15 15 15 15 15 15 15 15 15 15 14 14 14 14 14 13 13 13 14 13 13 13 13 13 13 13 13 13 13 13 13 12 12 12 12 12 12 12 12
15 15 15 15 15 15 15 15 15 15 15 15 15 14 14 14 14 14 13 13 13 13 13 13 13 13 13 13 13 13 13 12 12 12 12 12 12 12 12 12 12 12 12
15 15 15 15 15 15 15 14 14 14 15 14 14 14 14 14 14 13 13 13 13 13 13 13 13 13 13 13 12 12 12 12 12 12 12 12 12 12 12 12 11 11 11
15 15 15 15 15 14 14 14 14 14 14 14 14 14 14 14 13 13 13 13 13 13 12 12 12 12 12 12 12 12 12 12 12 12 12 12 11 11 11 11 11 11 11
14 14 14 14 14 14 14 14 14 14 14 14 14 14 14 13 13 13 13 13 13 12 12 12 12 12 12 12 12 12 12 12 11 11 11 11 11 11 11 11 11 11 11
Wind_Speed
7 7 7 6 6 6 6 5 5 4 3 3 3 3 3 3 2 3 2 3 3 3 3 3 2 3 2 2 2 2 2 3 2 2 2 2 3 3 4 4 3 3 4
7 7 7 6 7 7 6 6 5 5 4 3 3 2 2 3 2 2 2 3 3 4 3 3 4 3 2 3 3 3 3 2 2 2 3 2 3 3 4 4 4 4 4
7 7 7 7 7 7 7 6 6 5 5 4 3 3 3 3 3 3 3 3 3 3 4 4 4 3 4 3 3 4 4 3 3 3 3 3 2 1 3 3 3 3 3
7 7 7 7 7 7 7 6 6 6 5 5 4 4 4 3 3 3 2 3 3 4 4 4 4 4 4 3 4 3 4 4 4 3 3 4 3 3 2 3 3 3 3
7 7 7 6 6 6 6 6 6 6 5 5 4 4 4 4 3 3 3 4 3 4 4 4 4 4 4 4 4 4 4 4 5 4 3 3 4 5 4 3 3 3 3
6 6 6 5 5 6 6 6 6 6 6 5 5 5 5 4 4 4 4 4 3 3 3 4 4 4 4 4 4 4 5 4 5 5 4 4 4 4 4 4 4 4 3
6 6 7 6 6 5 6 6 6 6 6 6 6 6 6 6 6 5 5 5 4 3 3 3 3 4 4 4 4 4 5 5 5 5 4 4 5 4 4 4 4 5 4
5 6 7 7 6 6 6 5 5 5 5 5 5 5 5 5 5 5 5 5 4 3 2 3 4 4 5 5 4 5 5 4 5 5 4 5 5 4 4 4 4 5 4
3 4 5 6 6 6 6 5 5 4 4 5 5 5 5 5 5 4 5 4 3 3 3 4 4 4 4 4 5 4 4 4 4 4 5 5 4 4 4 4 5 5 5
3 3 4 5 5 6 6 5 5 4 4 3 4 3 4 5 5 4 3 3 3 3 3 3 3 4 4 4 4 4 3 4 4 4 4 5 4 3 4 4 4 5 5
2 3 3 4 4 5 5 5 5 4 4 3 3 3 4 4 4 4 4 4 3 3 3 3 3 3 3 3 3 4 3 4 4 4 4 4 5 5 4 4 4 4 4
2 2 2 3 3 4 5 5 5 5 4 3 3 3 4 4 4 4 4 4 4 4 3 3 3 3 3 3 3 3 3 3 4 4 4 5 4 4 4 4 4 3 3
2 2 2 2 2 2 3 4 5 4 4 4 4 4 3 3 4 4 4 4 3 3 4 4 4 4 3 3 3 3 3 4 4 4 4 5 4 4 3 4 3 3 4
1 1 1 1 1 2 2 3 4 4 4 4 4 4 4 3 3 3 3 4 3 4 4 4 4 4 4 4 4 4 4 4 4 4 4 4 5 5 5 4 4 4 4
2 1 1 1 2 2 2 3 3 4 4 4 4 4 3 3 3 3 3 3 4 4 4 4 4 4 4 3 3 4 4 4 4 4 4 4 3 4 4 4 3 4 4
2 2 1 1 2 2 3 3 3 4 4 4 4 3 2 2 2 2 2 2 3 3 4 4 4 4 4 0 2 5 4 4 4 4 4 4 4 3 3 3 4 5 6
2 2 2 2 2 2 3 3 3 3 4 4 3 3 2 2 3 3 2 3 3 3 3 4 4 4 3 1 3 4 5 5 4 4 4 4 2 3 3 4 6 6 6
2 2 2 2 2 2 2 2 2 3 3 3 3 3 3 3 4 3 2 3 3 3 3 3 3 4 3 2 3 5 6 5 5 4 4 4 3 2 3 4 4 5 5
2 2 2 1 1 2 2 2 3 3 4 4 3 3 4 4 4 3 3 3 3 3 3 3 3 3 3 2 3 5 5 4 5 5 4 4 4 2 2 4 4 4 4
2 1 1 1 1 1 2 2 3 2 3 3 3 3 3 4 4 4 3 2 3 3 3 3 3 3 3 2 3 5 4 4 5 4 4 4 3 2 3 4 5 5 4
1 1 1 1 1 2 2 2 2 2 2 2 2 2 3 4 4 3 2 2 3 3 3 3 3 3 3 2 2 4 4 4 4 4 4 3 4 3 3 5 5 4 4
2 1 1 2 2 2 3 2 2 2 2 2 2 2 3 3 2 2 2 2 3 3 3 3 3 3 2 2 2 4 5 5 4 3 3 1 4 3 4 4 4 3 4
3 2 2 2 2 2 2 3 2 2 2 2 2 2 3 2 2 2 2 3 3 3 3 3 3 3 2 2 3 4 4 5 4 3 0 0 3 3 4 5 5 5 4
4 3 3 3 3 3 3 3 3 3 3 3 3 3 3 2 2 2 2 2 2 3 3 3 3 3 2 2 1 2 3 3 3 3 2 4 5 4 2 2 4 4 3
4 4 4 4 4 4 3 3 3 3 4 4 3 3 3 2 2 2 2 3 2 2 3 3 3 3 3 2 2 3 3 3 2 3 2 2 1 2 2 2 2 2 2
5 5 5 5 5 4 4 3 3 4 4 4 4 4 3 3 2 2 2 1 2 2 3 3 4 3 1 2 1 3 3 3 4 3 2 2 2 2 2 2 2 2 2
Wind_Direction
183 181 184 182 180 178 179 184 190 182 184 187 197 199 203 212 209 206 204 224 246 256 265 282 269 272 273 279 271 261 252 257 249 243 246 243 230 220 218 222 236 233 231
182 183 187 185 185 181 183 185 190 189 195 194 206 212 215 222 219 231 210 235 245 254 252 263 267 269 265 260 261 259 267 265 252 262 257 239 219 211 218 216 224 242 241
193 187 191 193 191 189 190 191 192 190 197 200 203 197 201 225 221 221 221 237 247 252 267 264 270 274 267 260 261 260 258 261 260 259 267 267 259 253 209 217 222 229 240
198 194 194 196 197 195 190 190 188 190 193 200 210 210 218 232 240 243 236 229 234 248 253 257 263 268 269 269 265 267 268 264 264 250 251 266 282 272 246 227 224 225 235
199 195 195 193 196 192 188 186 185 189 190 198 204 217 229 238 242 243 237 247 242 249 256 255 259 261 263 264 273 281 275 265 272 273 263 259 245 247 254 255 254 249 241
193 191 188 180 183 184 185 182 182 190 191 197 205 216 227 240 248 244 241 240 240 242 249 257 264 264 267 263 261 264 261 267 275 277 272 263 259 245 247 256 256 258 258
186 184 180 175 179 183 185 183 182 192 196 201 209 215 226 232 236 243 237 249 250 246 248 260 259 265 264 265 263 260 271 263 264 268 274 269 264 260 256 257 263 265 254
171 177 179 179 184 187 186 183 183 191 200 208 217 222 227 235 238 237 249 244 253 256 259 257 256 260 263 264 259 259 261 265 267 270 272 269 263 254 251 252 260 263 252
158 174 179 183 187 188 189 188 184 192 205 213 215 220 227 239 243 238 240 247 252 251 248 253 257 263 264 263 260 261 266 265 262 260 255 261 259 247 246 245 249 259 260
149 163 176 182 187 187 184 183 183 191 199 210 219 210 220 226 235 241 243 253 257 264 261 261 260 262 261 259 259 257 259 263 266 265 260 262 260 255 250 253 253 257 263
145 149 159 174 185 182 177 179 182 188 191 203 218 222 216 220 223 229 238 241 247 251 253 254 257 261 265 265 265 268 262 261 265 268 260 258 269 261 251 247 247 247 251
139 130 138 160 174 177 178 181 187 195 201 200 202 215 221 221 225 227 232 233 237 244 245 247 249 257 262 261 259 261 264 265 265 270 274 271 262 260 260 254 247 244 241
145 129 135 153 171 180 186 192 194 200 203 201 203 211 220 224 233 237 236 230 232 241 242 240 247 256 261 255 256 260 264 265 262 262 263 268 267 264 262 256 245 237 234
175 176 154 151 179 190 197 210 211 204 203 201 204 211 223 228 235 239 239 236 235 239 244 243 245 249 252 251 255 257 260 260 263 261 258 262 262 255 251 244 239 235 235
217 227 242 217 205 201 205 217 220 210 206 202 204 213 225 230 235 234 235 234 232 234 237 244 247 249 247 251 263 264 256 252 258 259 254 251 255 275 259 255 239 231 231
238 249 265 260 228 207 211 216 216 209 206 207 205 202 217 234 240 242 241 242 244 243 239 240 248 253 255 332 283 270 265 253 253 255 253 246 231 230 236 255 259 252 239
244 251 255 256 257 234 215 221 216 210 203 201 199 192 200 235 242 242 244 249 248 245 247 249 251 253 255 208 252 265 261 251 251 252 250 253 235 211 234 226 229 242 250
248 253 253 259 258 264 217 207 200 198 195 190 193 203 205 235 247 237 236 248 251 256 254 255 256 253 244 201 238 262 247 250 248 244 242 242 244 233 232 231 233 234 232
245 251 256 263 263 264 218 188 195 197 197 195 199 204 209 225 241 237 231 245 250 254 255 248 249 254 248 218 240 259 248 243 246 240 235 232 233 203 225 226 234 240 236
237 238 253 271 232 234 206 197 203 210 215 213 212 209 206 219 231 235 233 239 245 250 259 258 258 254 255 217 228 251 250 246 241 231 226 205 217 187 198 222 231 236 238
223 238 251 259 244 220 204 208 214 228 244 229 210 196 202 209 215 222 230 239 250 258 258 258 255 251 253 215 217 247 253 256 244 233 225 207 162 198 220 236 241 248 247
214 233 258 274 254 219 205 211 224 238 233 213 203 200 215 224 205 206 225 239 249 247 247 250 255 242 236 238 229 235 249 274 254 244 239 189 151 205 227 232 249 242 240
222 228 238 251 240 221 211 225 238 239 227 221 217 214 219 217 214 218 228 228 229 249 256 256 264 265 256 215 195 214 227 242 249 253 314 303 182 216 218 216 222 214 224
226 226 230 232 229 227 228 235 229 224 217 221 228 219 216 210 210 240 243 250 251 258 261 265 272 279 280 282 257 248 239 220 228 252 212 191 195 211 224 206 209 226 229
227 229 235 237 232 233 236 235 226 222 225 226 231 234 228 220 224 233 254 248 258 264 260 270 278 280 276 304 309 255 262 264 258 250 243 241 228 226 229 221 218 226 219
228 230 234 237 227 227 232 232 227 227 226 227 232 238 235 229 233 230 239 191 239 193 215 252 276 287 301 329 280 254 256 245 239 236 233 229 229 237 237 230 222 221 224
Height
1522 1523 1524 1525 1526 1526 1527 1528 1529 1529 1530 1531 1532 1533 1534 1534 1535 1535 1535 1535 1535 1536 1536 1536 1536 1536 1536 1535 1535 1535 1535 1535 1535 1535 1535 1535 1535 1535 1535 1535 1535 1536 1536
1519 1521 1522 1523 1524 1524 1525 1526 1527 1528 1529 1529 1530 1531 1532 1533 1533 1534 1533 1534 1534 1534 1535 1534 1534 1534 1534 1533 1533 1533 1534 1534 1534 1534 1534 1533 1534 1533 1533 1533 1533 1534 1534
1516 1519 1520 1521 1522 1523 1524 1525 1525 1526 1527 1528 1529 1530 1531 1531 1532 1532 1532 1532 1532 1532 1532 1532 1532 1532 1532 1532 1531 1531 1532 1532 1532 1532 1532 1531 1531 1531 1532 1531 1531 1531 1531
1514 1516 1517 1519 1520 1521 1522 1523 1523 1524 1525 1526 1528 1528 1529 1530 1530 1530 1531 1530 1530 1530 1530 1530 1530 1530 1530 1530 1530 1530 1530 1530 1530 1530 1529 1529 1529 1530 1530 1530 1530 1529 1529
1512 1514 1515 1516 1518 1519 1520 1521 1522 1522 1523 1524 1525 1526 1527 1528 1528 1528 1528 1528 1529 1528 1528 1528 1528 1528 1528 1528 1527 1527 1527 1527 1528 1528 1528 1527 1527 1527 1527 1527 1528 1528 1528
1510 1512 1513 1514 1516 1517 1518 1519 1519 1520 1521 1522 1522 1523 1524 1525 1525 1526 1526 1526 1527 1527 1526 1526 1526 1526 1526 1525 1525 1525 1525 1525 1525 1525 1525 1525 1525 1525 1525 1525 1525 1525 1526
1508 1510 1511 1512 1513 1514 1516 1516 1517 1518 1519 1519 1520 1520 1521 1522 1522 1523 1524 1524 1525 1525 1524 1524 1523 1523 1523 1523 1522 1522 1522 1522 1522 1522 1522 1522 1522 1522 1522 1522 1522 1522 1522
1506 1508 1509 1510 1511 1512 1513 1514 1515 1516 1516 1517 1517 1518 1518 1520 1521 1521 1521 1522 1522 1522 1521 1521 1521 1520 1520 1520 1520 1520 1520 1519 1519 1519 1518 1519 1519 1519 1519 1520 1520 1519 1519
1504 1506 1507 1508 1509 1510 1511 1512 1513 1513 1514 1515 1515 1515 1516 1517 1518 1518 1519 1519 1519 1519 1519 1518 1518 1518 1517 1517 1517 1517 1516 1516 1516 1516 1515 1516 1516 1516 1516 1516 1517 1518 1516
1503 1505 1506 1507 1508 1509 1510 1510 1511 1511 1512 1512 1513 1514 1513 1514 1515 1516 1516 1516 1516 1516 1516 1516 1516 1515 1515 1514 1514 1514 1513 1513 1513 1512 1512 1512 1513 1513 1513 1513 1513 1514 1514
1502 1503 1504 1505 1506 1507 1508 1508 1509 1510 1510 1510 1510 1511 1511 1512 1512 1512 1513 1513 1513 1513 1513 1513 1513 1513 1512 1512 1511 1511 1511 1510 1510 1510 1509 1509 1509 1509 1510 1510 1510 1510 1511
1502 1503 1503 1504 1505 1505 1506 1507 1507 1508 1508 1508 1508 1509 1509 1510 1510 1510 1510 1510 1510 1511 1511 1510 1510 1510 1510 1509 1509 1508 1508 1508 1507 1507 1507 1506 1506 1506 1506 1506 1506 1507 1507
1501 1502 1502 1503 1503 1504 1504 1505 1505 1506 1506 1506 1506 1506 1507 1507 1507 1507 1507 1507 1507 1507 1508 1508 1507 1507 1507 1506 1506 1506 1505 1505 1505 1504 1504 1503 1503 1503 1503 1503 1503 1504 1504
1500 1500 1501 1501 1501 1502 1502 1503 1503 1503 1503 1503 1504 1504 1504 1504 1505 1505 1505 1505 1504 1504 1505 1505 1504 1504 1504 1504 1503 1503 1502 1502 1502 1502 1501 1501 1500 1500 1500 1500 1500 1501 1501
1498 1499 1499 1499 1499 1500 1499 1500 1500 1501 1501 1501 1501 1502 1502 1502 1502 1503 1502 1502 1502 1502 1502 1502 1501 1501 1502 1501 1501 1501 1500 1499 1499 1499 1498 1498 1497 1497 1497 1498 1498 1498 1499
1497 1497 1498 1498 1497 1497 1497 1497 1498 1498 1498 1498 1499 1499 1500 1499 1500 1500 1500 1500 1499 1499 1499 1499 1499 1498 1499 1498 1498 1497 1497 1497 1496 1496 1495 1495 1494 1494 1494 1494 1494 1495 1496
1495 1496 1496 1495 1495 1495 1495 1495 1495 1495 1495 1496 1496 1497 1497 1498 1498 1498 1497 1497 1497 1497 1496 1496 1496 1495 1495 1495 1495 1494 1494 1493 1493 1493 1492 1492 1492 1491 1491 1491 1491 1492 1492
1493 1493 1493 1493 1493 1493 1493 1492 1493 1493 1493 1494 1494 1494 1494 1495 1495 1494 1494 1495 1495 1494 1494 1493 1493 1492 1492 1492 1491 1491 1490 1490 1490 1489 1489 1489 1488 1488 1488 1488 1489 1489 1489
1491 1491 1492 1491 1491 1491 1490 1490 1491 1491 1492 1492 1492 1492 1491 1492 1492 1492 1491 1492 1492 1492 1491 1491 1490 1489 1489 1489 1488 1487 1487 1486 1486 1486 1486 1485 1485 1485 1485 1486 1486 1486 1487
1489 1489 1489 1489 1489 1489 1489 1489 1489 1489 1489 1490 1489 1489 1489 1489 1489 1489 1489 1489 1489 1489 1489 1488 1487 1487 1486 1485 1485 1484 1483 1483 1482 1482 1482 1482 1482 1482 1482 1483 1483 1483 1484
1486 1486 1486 1487 1487 1487 1487 1487 1487 1487 1487 1487 1487 1487 1487 1487 1487 1487 1487 1487 1486 1486 1486 1485 1484 1483 1483 1482 1481 1480 1479 1479 1479 1479 1479 1479 1479 1479 1479 1480 1480 1481 1481
1484 1484 1484 1484 1484 1485 1485 1485 1485 1485 1485 1485 1485 1485 1485 1485 1485 1485 1484 1484 1484 1483 1483 1482 1482 1481 1479 1479 1478 1477 1476 1476 1476 1476 1477 1477 1476 1477 1477 1477 1477 1478 1478
1481 1482 1482 1481 1482 1482 1483 1483 1483 1483 1483 1483 1483 1483 1483 1483 1482 1482 1482 1481 1481 1481 1480 1480 1479 1478 1477 1476 1475 1474 1473 1473 1473 1474 1474 1474 1474 1474 1475 1475 1475 1476 1476
1479 1479 1479 1479 1479 1480 1480 1480 1480 1481 1481 1481 1481 1481 1481 1480 1480 1479 1479 1479 1478 1478 1477 1477 1476 1476 1475 1474 1473 1471 1471 1471 1471 1472 1472 1472 1472 1472 1473 1473 1473 1473 1474
1475 1476 1476 1476 1476 1477 1477 1478 1478 1478 1478 1479 1479 1479 1479 1478 1477 1477 1477 1476 1476 1475 1474 1474 1474 1473 1472 1472 1470 1469 1469 1468 1468 1469 1470 1470 1471 1471 1471 1471 1471 1471 1472
1472 1472 1473 1473 1473 1474 1474 1475 1475 1476 1476 1477 1477 1477 1477 1476 1475 1474 1474 1473 1473 1471 1471 1470 1470 1470 1470 1468 1468 1467 1467 1467 1467 1467 1468 1468 1468 1469 1469 1469 1469 1470 1470